Regional Weather Roundup
Issued by NWS

Home | Current Version | Previous Version | Text Only | Print | Product List | Glossary Off
Versions: 1 2 3 4 5 6 7 8 9 10 11 12 13 14 15 16 17 18 19 20 21 22 23 24 25 26 27 28 29 30 31 32 33 34 35 36 37 38 39 40 41 42 43 44 45 46 47 48 49 50

000
ASUS45 KTFX 221310
RWRMT
MONTANA REGIONAL WEATHER ROUNDUP
NATIONAL WEATHER SERVICE GREAT FALLS MT
600 AM MST MON JAN 22 2018

NOTE: "FAIR" INDICATES FEW OR NO CLOUDS BELOW 12000 FEET WITH NO
SIGNIFICANT WEATHER AND/OR OBSTRUCTIONS TO VISIBILITY.

MTZ001>007-043-221400-
WEST OF THE DIVIDE

CITY           SKY/WX    TMP DP  RH WIND       PRES   REMARKS
KALISPELL      FAIR      24  22  91 CALM      30.03R
MISSOULA       CLOUDY    32  25  75 E9        30.07R WCI  24
BUTTE          CLOUDY    21  14  74 CALM      30.04R
MULLAN PASS    FLURRIES  23  21  92 MISG      29.96F
ANACONDA         N/A     28  18  64 SE3       30.04R
DEER LODGE       N/A     23  18  80 W3        30.06R
EUREKA           N/A     36  23  60 MISG      30.01S
HAMILTON         N/A     30  27  86 S10       30.08S WCI  21
RONAN            N/A     36  27  69 SW9       30.06R WCI  29
$$

MTZ008-052>055-221400-
SOUTHWEST MONTANA

CITY           SKY/WX    TMP DP  RH WIND       PRES   REMARKS
DILLON         CLOUDY    23  16  74 CALM      30.07S
ENNIS          CLOUDY    27  18  69 S16G26    30.13R WCI  14
W YELLOWSTONE  CLOUDY    18  14  86 CALM      30.12S
THREE FORKS      N/A     18  13  80 CALM      30.05S
$$

MTZ009-010-012-014-046-048-049-054-221400-
EAST SLOPES AND CENTRAL MONTANA

CITY           SKY/WX    TMP DP  RH WIND       PRES   REMARKS
CUT BANK       FAIR      32  20  61 W23       29.88F WCI  19
GREAT FALLS    FAIR      32  18  56 SW22      29.95R WCI  19
MALMSTROM AFB  MOCLDY    32  20  61 SW16      29.96S WCI  22
HELENA           N/A    N/A N/A N/A MISG      30.05S
AUGUSTA        FAIR      31  20  64 W14       29.93R WCI  20
BOWMANS CRNR   FAIR      26  19  74 S22       29.93R WCI  12
CHOTEAU          N/A     30  19  64 S7        29.95R WCI  23
CONRAD           N/A     27  22  81 S9        29.95  WCI  18
FAIRFIELD      MOCLDY    30  20  67 S17       29.94R WCI  18
POWER          FAIR      28  19  70 SW15      29.94R WCI  16
RAYNESFORD     MOCLDY    36  17  47 SW16G30   29.95  WCI  26
ULM            MOCLDY    34  21  60 SW20      29.97R WCI  22
WHITE SULPHUR    N/A     27  14  59 S9G16     30.01R WCI  17
$$

MTZ011-013-016-021-045-047-050-051-221400-
NORTH CENTRAL MONTANA

CITY           SKY/WX    TMP DP  RH WIND       PRES   REMARKS
HAVRE          FAIR      29  22  75 SW13      29.93R WCI  19
LEWISTOWN      MOCLDY    31  19  61 SW24      29.95R WCI  17
N BAR RANCH    FAIR      28   9  43 W5        29.95R
CHINOOK          N/A     18  12  79 E5        29.93R
DENTON         MOCLDY    33  21  61 MISG      29.91R
GEYSER         MOCLDY    33  19  56 W21       29.93S WCI  21
GRASS RANGE    MOCLDY    32  15  50 W7        29.92R WCI  25
STANFORD       MOCLDY    34  18  52 W24       29.93S WCI  22
WINIFRED       CLOUDY    32  19  58 SW12      29.92S WCI  23
$$

MTZ017>020-022>027-061-062-221400-
NORTHEAST MONTANA

CITY           SKY/WX    TMP DP  RH WIND       PRES   REMARKS
GLASGOW        FAIR       6   1  80 CALM      29.96R
GLENDIVE       FAIR       7   4  87 S9        30.00R WCI  -7
JORDAN           N/A      1  -4  79 W3        29.96R
MALTA          PTCLDY     3   0  85 CALM      29.96S
SIDNEY         FAIR       7   4  87 S5        30.01R
WOLF POINT     HAZE       0  -5  79 CALM      30.00S VSB 3/4
PLENTYWOOD       N/A     10   7  85 CALM      29.97R
POPLAR           N/A      7   3  85 CALM      30.00F
$$

MTZ028>42-056>058-221400-
SOUTHCENTRAL AND SOUTHEAST MONTANA

CITY           SKY/WX    TMP DP  RH WIND       PRES   REMARKS
BAKER          FAIR       5   3  91 W3        29.99R
BILLINGS       FAIR      22  14  71 SW14      30.01S WCI   9
LIVINGSTON     CLOUDY    29  17  61 SW25G38   30.01F WCI  14
MILES CITY     FAIR       7   5  91 S7        30.00R WCI  -5
BIG TIMBER     CLEAR     28  14  54 W21G30    30.03R WCI  15
FORSYTH          N/A     19  18  93 CALM      29.98F
HARLOWTON      CLOUDY    29  16  57 W38G46    29.98S WCI  12
LAUREL           N/A     25  14  63 CALM      30.05R
$$

REGIONAL REPORTS...DAKOTAS

CITY           SKY/WX    TMP DP  RH WIND       PRES   REMARKS
WILLISTON      FAIR       4   1  88 SW3       30.01R
MINOT          FOG        8   5  87 CALM      30.02R VSB 1/4
DICKINSON      FAIR      13   9  84 W3        29.96R
BEACH          FAIR      10  10 100 SE5       30.01R
CROSBY         FAIR       7   3  85 SW10      30.00R WCI  -8
TIOGA          FOG        0  -2  92 CALM      30.00R VSB<1/4
BISMARCK       FOG       19  17  92 NW3       30.03S VSB 1/4
GRAND FORKS    CLOUDY    24  21  88 N8        30.07F WCI  15
FARGO          CLOUDY    26  24  92 N12       30.02S WCI  16
BUFFALO SD       N/A     16  11  80 W9        29.91R WCI   4
RAPID CITY     FAIR      24  14  65 W6        29.97S WCI  17
$$

REGIONAL REPORTS...WYOMING/IDAHO/WASHINGTON

CITY           SKY/WX    TMP DP  RH WIND       PRES   REMARKS
GILLETTE       FAIR      21  10  62 VRB3      29.98R
SHERIDAN       FAIR       6   0  76 SE3       29.99R
BUFFALO WY     FAIR      23   3  42 SW9       29.98R WCI  13
CODY           FAIR      27   9  46 W17G28    30.02R WCI  14
YELLOWSTONE LA   N/A      6   3  87 CALM      30.14S
IDAHO FALLS    CLOUDY    23  18  81 N3        30.21S
SALMON         CLOUDY    23  19  85 CALM      30.15S
BOISE          LGT RAIN  34  32  92 SE13      30.17S WCI  25
SPOKANE        FAIR      32  32 100 S9        30.07S WCI  24
$$

REGIONAL REPORTS...ALBERTA

CITY           SKY/WX    TMP DP  RH WIND       PRES   REMARKS
CALGARY        PTCLDY    25  12  58 S7        29.73S WCI  17
CARDSTON         N/A     34  16  47 W10G17      N/A  WCI  26
EDMONTON       CLEAR     16  12  86 W6        29.73R WCI   7
FORT MCMURRAY  FLURRIES  12   9  85 E10       29.84S WCI  -1
HIGH LEVEL     LGT SNOW   3   0  85 E3        29.81
LETHBRIDGE     PTCLDY    32  21  64 SW17      29.85S WCI  21
LLOYDMINSTER   CLOUDY    19  18  93 SE9       29.72R WCI   9
MEDICINE HAT   PTCLDY    36  23  60 SW20      29.80F WCI  25
MILK RIVER       N/A     34  21  60 W14         N/A  WCI  24
PEACE RIVER    CLOUDY    18  16  93 NW5       29.72R
PINCHER CREEK  CLEAR     32  18  55 SW26G36   29.87R WCI  18
WATERTON GATE    N/A     32  18  55 SW20G30     N/A  WCI  20
$$

REGIONAL REPORTS...SASKATCHEWAN

CITY           SKY/WX    TMP DP  RH WIND       PRES   REMARKS
CYPRESS HILLS    N/A     28  18  64 W8          N/A  WCI  20
ESTEVAN        PTCLDY     3   0  85 SE6       30.00S FOG     WCI  -8
MOOSE JAW        N/A     18  12  79 E9          N/A  WCI   6
PRINCE ALBERT  LGT SNOW   9   5  85 E14       29.96F FOG     WCI  -8
REGINA         PTCLDY     7   5  92 SE10      29.94S WCI  -8
ROCKGLEN         N/A     16  10  79 SW9         N/A  WCI   4
SASKATOON      PTCLDY    18  16  93 SE9       29.84F WCI   6
SWIFT CURRENT  MOCLDY    27  16  63 SW14      29.80S WCI  15
$$



USA.gov is the U.S. government's official web portal to all federal, state and local government web resources and services.